Погода в Матраеве

Россия / Республика Башкортостан     52°15′02″N   58°01′28″E
темп.,
°C
ветер,
м/с
пор.,
м/с
влажн.,
%
обл.,
%
осадки,
мм/ч
давл.,
гПа
погр.,
м
12 мая, ср
ср1223:00+13в1142100 0.0 102810
02:00+12в1144100 0.0 102810
05:00+10в1150100 0.0 102910
08:00+14всв114696 0.0 1030115
11:00+18вюв3434100 0.0 10291115
14:00+21юв332883 0.0 10291723
17:00+21юв2327100 0.0 10281762
20:00+18ююз224442 0.0 102819
13 мая, чт
чт1323:00+14зюз115072 0.0 102911
02:00+12ссз225282 0.0 102910
05:00+11сз11555 0.0 102910
08:00+16ссз11460 0.0 1029104
11:00+21ююз11300 0.0 10291015
14:00+23ююз22240 0.0 10281697
17:00+24зюз22250 0.0 10271713
20:00+20з22390 0.0 102712
14 мая, пт
пт1423:00+15зсз22540 0.0 102813
02:00+14сз22560 0.0 102813
05:00+13сз22550 0.0 102911
08:00+18ссз11460 0.0 102996
11:00+23зюз23290 0.0 10281181
14:00+25юз33250 0.0 10281904
17:00+25юз33250 0.0 10271878
20:00+20зюз34490 0.0 102757
15 мая, сб
сб1523:00+17сз22520 0.0 102713
02:00+15сз22525 0.0 102711
05:00+14ссз22541 0.0 102711
08:00+18сз114719 0.0 1028111
11:00+24сз12320 0.0 10261077
14:00+26с12255 0.0 10252154
17:00+27юз23285 0.0 10242684
20:00+22з46510 0.0 102492
16 мая, вс
вс1623:00+18сз22490 0.0 102414
02:00+16сз11540 0.0 102411
05:00+16сз22560 0.0 102411
08:00+20ссз11500 0.0 1025116
11:00+25юз11330 0.0 10231078
14:00+27зюз22240 0.0 10222529
17:00+27зюз432963 0.0 10212452
20:00+22сз34510 0.0 102162